BREEZE-KM R/B, 41336

Orbit data source: Space-Track

BREEZE-KM R/B, 41336 is space debris in SSO originally from a launch on Tue, 16 Feb 2016 UTC launched from the Plesetsk Missile And Space Complex (PKMTR). Debris objects in space refer to the collection of defunct objects orbiting the Earth. Examples of debris include non-operational satellites, rocket bodies, and fragments generated from explosions, collisions, or faulty payload assembly.

Loading next visibility...
Identifier
41336, 2016-011B
Orbit
SSO
Last TLE update
20 hours ago
Origin
Manufacturer
Khrunichev
Mission
Spacecraft
Bus & Motor
BRIZ, S5.92
Mass
2,370 kg wet, 2,370 kg dry
Launch date (UTC)
2016-02-16 (9 years ago)
Launch vehicle
Unknown
Launch site
Plesetsk Missile And Space Complex (PKMTR)
Object type
Payload
Rocket body
Debris
Shape & HBR
Hex Cyl + 1 Rod, 4.1 m
Radar Cross Section
10.190 m², Large (>1 m²)

Expand to show TLE details & history

TLE from 20 hours ago
0 BREEZE-KM R/B
1 41336U 16011B   25128.44725814  .00007807  00000-0  24315-3 0  9999
2 41336  98.6753 291.1546 0158475  23.1524 337.6746 15.22191628505746
Epoch: 2025-05-08T10:44Z
Definitive object data (Epoch: 2025-05-08T10:44:03.103Z)
Latitude
-0.00004°
Longitude
-96.37595°
Altitude
401.699 km
Speed
7.725 km/s
True Right ascension
19h 24m 37s
True Declination
0° 00' 00"
Sunlit
Object was in full shadow at TLE epoch
Visualization TLE readout
Latitude
-76.84381°
Longitude
44.10562°
Altitude
580.577 km
Speed
7.539 km/s
Apparent Right ascension
03h 23m 43s
Apparent Declination
-59° 35' 42"
Sunlit
Object is in daylight
Visualization observer readout
Local Sidereal Time
14:57:23
Azimuth
189.715° SSW
Elevation
-69.89°
Doppler factor
1
Orbital elements
Apogee altitude
605.194 km
Perigee altitude
387.31 km
Semi-major axis
6,874.389 km
Eccentricity
0.0158475
Inclination
98.6753°
RAAN
291.1546°
Arg. of periapsis
23.1524°
True anomaly
336.97192°
Mean anomaly
337.6746°
Eccentric anomaly
337.32456°
Mean motion
3.80796 °/min
BSTAR
0.00024315
Orbital period
94.54 mins
Loading maneuver chart data...
Loading SW <> Apogee altitude chart data...
Loading historical data...
Loading historical data...
Loading historical data...
Loading historical data...
Loading historical data...
Loading historical data...
Loading historical data...
Other satellites on launch #11 in the year 2016 (2016-02-16 UTC)

BREEZE-KM R/B Visibility forecast

Observer location: undefined°, undefined°

Span
Click to sort rows by Start time (UTC) header in descending order
Start Az.
Max El. time (UTC)
Max El. Az.
Max El.
End time (UTC)
End Az.
4 mins2025-05-09 10:32:30.196Z141.434° SSE2025-05-09 10:34:30.196Z65.24° ENE36.341°2025-05-09 10:36:30.196Z3.361° NNE
5 mins2025-05-09 23:35:30.196Z29.369° NE2025-05-09 23:37:30.196Z112.766° SE41.788°2025-05-09 23:40:30.196Z182.041° SSW
|